Time,TemperatureF,DewpointF,PressureIn,WindDirection,WindDirectionDegrees,WindSpeedMPH,WindSpeedGustMPH,Humidity,HourlyPrecipIn,Conditions,Clouds,dailyrainin,SoftwareType,DateUTC
2013-08-28 00:13:00,72.3,71.0,29.86,West,273,0.0,-999.0,94,-99.99,,,0.00,weatherlink.com 1.10,2013-08-28 04:13:00,
2013-08-28 00:28:00,72.2,70.0,29.85,West,273,0.0,-999.0,94,-99.99,,,0.00,weatherlink.com 1.10,2013-08-28 04:28:00,
2013-08-28 00:43:00,72.1,70.0,29.85,West,273,0.0,-999.0,94,-99.99,,,0.00,weatherlink.com 1.10,2013-08-28 04:43:00,
2013-08-28 00:58:00,72.0,71.0,29.84,West,273,0.0,-999.0,95,-99.99,,,0.00,weatherlink.com 1.10,2013-08-28 04:58:00,
2013-08-28 01:13:00,71.9,71.0,29.84,West,273,0.0,-999.0,95,-99.99,,,0.00,weatherlink.com 1.10,2013-08-28 05:13:00,
2013-08-28 01:28:00,71.9,71.0,29.84,West,273,0.0,-999.0,95,-99.99,,,0.00,weatherlink.com 1.10,2013-08-28 05:28:00,
2013-08-28 01:43:00,71.6,70.0,29.84,SW,232,0.0,-999.0,95,-99.99,,,0.01,weatherlink.com 1.10,2013-08-28 05:43:00,
2013-08-28 01:58:00,71.6,70.0,29.84,SW,232,0.0,-999.0,95,-99.99,,,0.01,weatherlink.com 1.10,2013-08-28 05:58:00,
2013-08-28 02:13:00,71.5,70.0,29.84,SW,232,0.0,-999.0,96,-99.99,,,0.01,weatherlink.com 1.10,2013-08-28 06:13:00,
2013-08-28 02:28:00,71.3,70.0,29.84,SW,232,0.0,-999.0,96,-99.99,,,0.01,weatherlink.com 1.10,2013-08-28 06:28:00,
2013-08-28 02:43:00,71.3,70.0,29.83,SW,232,0.0,-999.0,96,-99.99,,,0.01,weatherlink.com 1.10,2013-08-28 06:43:00,
2013-08-28 02:58:00,71.2,70.0,29.83,SW,232,0.0,-999.0,96,-99.99,,,0.02,weatherlink.com 1.10,2013-08-28 06:58:00,
2013-08-28 03:13:00,71.1,70.0,29.82,SW,232,0.0,-999.0,96,-99.99,,,0.02,weatherlink.com 1.10,2013-08-28 07:13:00,
2013-08-28 03:28:00,70.6,70.0,29.82,SW,232,0.0,-999.0,97,-99.99,,,0.02,weatherlink.com 1.10,2013-08-28 07:28:00,
2013-08-28 03:43:00,70.4,70.0,29.82,SW,232,0.0,-999.0,97,-99.99,,,0.03,weatherlink.com 1.10,2013-08-28 07:43:00,
2013-08-28 03:58:00,70.3,69.0,29.82,SW,232,0.0,-999.0,97,-99.99,,,0.04,weatherlink.com 1.10,2013-08-28 07:58:00,
2013-08-28 04:13:00,70.1,69.0,29.83,SW,232,0.0,-999.0,97,-99.99,,,0.05,weatherlink.com 1.10,2013-08-28 08:13:00,
2013-08-28 04:28:00,70.0,69.0,29.82,SW,232,0.0,-999.0,97,-99.99,,,0.05,weatherlink.com 1.10,2013-08-28 08:28:00,
2013-08-28 04:43:00,70.0,69.0,29.82,SW,232,0.0,-999.0,97,-99.99,,,0.05,weatherlink.com 1.10,2013-08-28 08:43:00,
2013-08-28 04:58:00,70.0,69.0,29.83,SW,232,0.0,-999.0,97,-99.99,,,0.05,weatherlink.com 1.10,2013-08-28 08:58:00,
2013-08-28 05:13:00,69.9,69.0,29.82,SW,232,0.0,-999.0,98,-99.99,,,0.05,weatherlink.com 1.10,2013-08-28 09:13:00,
2013-08-28 05:28:00,69.8,69.0,29.82,SW,232,0.0,-999.0,98,-99.99,,,0.05,weatherlink.com 1.10,2013-08-28 09:28:00,
2013-08-28 05:43:00,69.7,69.0,29.82,SW,232,0.0,-999.0,98,-99.99,,,0.05,weatherlink.com 1.10,2013-08-28 09:43:00,
2013-08-28 05:58:00,69.5,69.0,29.83,SW,232,0.0,-999.0,98,-99.99,,,0.05,weatherlink.com 1.10,2013-08-28 09:58:00,
2013-08-28 06:13:00,69.5,69.0,29.82,SW,232,0.0,-999.0,98,-99.99,,,0.05,weatherlink.com 1.10,2013-08-28 10:13:00,
2013-08-28 06:28:00,69.6,69.0,29.82,SW,232,0.0,-999.0,98,-99.99,,,0.05,weatherlink.com 1.10,2013-08-28 10:28:00,
2013-08-28 06:43:00,69.5,69.0,29.82,SW,233,1.0,-999.0,98,-99.99,,,0.05,weatherlink.com 1.10,2013-08-28 10:43:00,
2013-08-28 06:58:00,69.5,69.0,29.82,SW,233,0.0,-999.0,98,-99.99,,,0.05,weatherlink.com 1.10,2013-08-28 10:58:00,
2013-08-28 07:13:00,69.5,69.0,29.82,SW,233,0.0,-999.0,98,-99.99,,,0.05,weatherlink.com 1.10,2013-08-28 11:13:00,
2013-08-28 07:28:00,69.4,69.0,29.83,SW,233,0.0,-999.0,98,-99.99,,,0.05,weatherlink.com 1.10,2013-08-28 11:28:00,
2013-08-28 07:43:00,69.4,69.0,29.83,SW,233,0.0,-999.0,98,-99.99,,,0.05,weatherlink.com 1.10,2013-08-28 11:43:00,
2013-08-28 07:58:00,69.7,69.0,29.83,SW,233,0.0,-999.0,98,-99.99,,,0.05,weatherlink.com 1.10,2013-08-28 11:58:00,
2013-08-28 08:13:00,69.9,69.0,29.83,SW,233,0.0,-999.0,98,-99.99,,,0.05,weatherlink.com 1.10,2013-08-28 12:13:00,
2013-08-28 08:28:00,70.3,70.0,29.83,SW,233,0.0,-999.0,98,-99.99,,,0.05,weatherlink.com 1.10,2013-08-28 12:28:00,
2013-08-28 08:43:00,70.3,70.0,29.83,SW,233,0.0,-999.0,98,-99.99,,,0.05,weatherlink.com 1.10,2013-08-28 12:43:00,
2013-08-28 08:58:00,70.8,70.0,29.83,SW,233,0.0,-999.0,98,-99.99,,,0.05,weatherlink.com 1.10,2013-08-28 12:58:00,
2013-08-28 09:13:00,71.2,71.0,29.83,SW,233,0.0,-999.0,99,-99.99,,,0.05,weatherlink.com 1.10,2013-08-28 13:13:00,
2013-08-28 09:28:00,71.5,71.0,29.83,WSW,237,0.0,-999.0,98,-99.99,,,0.05,weatherlink.com 1.10,2013-08-28 13:28:00,
2013-08-28 09:43:00,71.7,71.0,29.83,WNW,286,0.0,-999.0,98,-99.99,,,0.05,weatherlink.com 1.10,2013-08-28 13:43:00,
2013-08-28 09:58:00,72.4,72.0,29.83,WNW,286,0.0,-999.0,98,-99.99,,,0.05,weatherlink.com 1.10,2013-08-28 13:58:00,
2013-08-28 10:13:00,72.8,72.0,29.84,WNW,286,0.0,-999.0,98,-99.99,,,0.05,weatherlink.com 1.10,2013-08-28 14:13:00,
2013-08-28 10:28:00,73.4,72.0,29.84,WNW,286,0.0,-999.0,96,-99.99,,,0.05,weatherlink.com 1.10,2013-08-28 14:28:00,
2013-08-28 10:43:00,73.8,72.0,29.84,WNW,286,0.0,-999.0,94,-99.99,,,0.05,weatherlink.com 1.10,2013-08-28 14:43:00,
2013-08-28 10:58:00,74.0,71.0,29.84,WNW,286,0.0,-999.0,90,-99.99,,,0.05,weatherlink.com 1.10,2013-08-28 14:58:00,
2013-08-28 11:13:00,74.3,72.0,29.84,WNW,287,0.0,-999.0,91,-99.99,,,0.05,weatherlink.com 1.10,2013-08-28 15:13:00,
2013-08-28 11:28:00,74.2,72.0,29.83,WNW,287,0.0,-999.0,92,-99.99,,,0.05,weatherlink.com 1.10,2013-08-28 15:28:00,
2013-08-28 11:43:00,75.0,72.0,29.83,WNW,288,0.0,-999.0,91,-99.99,,,0.05,weatherlink.com 1.10,2013-08-28 15:43:00,
2013-08-28 11:58:00,75.5,72.0,29.83,NNW,345,0.0,-999.0,89,-99.99,,,0.05,weatherlink.com 1.10,2013-08-28 15:58:00,
2013-08-28 12:13:00,75.6,73.0,29.83,North,11,0.0,-999.0,90,-99.99,,,0.05,weatherlink.com 1.10,2013-08-28 16:13:00,
2013-08-28 12:28:00,76.0,72.0,29.83,ESE,109,1.0,-999.0,86,-99.99,,,0.05,weatherlink.com 1.10,2013-08-28 16:28:00,
2013-08-28 12:43:00,76.1,72.0,29.83,ESE,106,0.0,-999.0,86,-99.99,,,0.05,weatherlink.com 1.10,2013-08-28 16:43:00,
2013-08-28 12:58:00,76.7,72.0,29.82,ESE,123,0.0,-999.0,84,-99.99,,,0.05,weatherlink.com 1.10,2013-08-28 16:58:00,
2013-08-28 13:13:00,77.0,72.0,29.82,East,97,0.0,-999.0,83,-99.99,,,0.05,weatherlink.com 1.10,2013-08-28 17:13:00,
2013-08-28 13:28:00,77.7,72.0,29.83,East,92,0.0,-999.0,82,-99.99,,,0.05,weatherlink.com 1.10,2013-08-28 17:28:00,
2013-08-28 13:43:00,78.4,73.0,29.83,NNW,336,0.0,-999.0,83,-99.99,,,0.05,weatherlink.com 1.10,2013-08-28 17:43:00,
2013-08-28 13:58:00,79.0,73.0,29.84,NNW,331,0.0,-999.0,82,-99.99,,,0.05,weatherlink.com 1.10,2013-08-28 17:58:00,
2013-08-28 14:27:00,80.6,74.0,29.83,NNW,331,0.0,-999.0,79,-99.99,,,0.05,weatherlink.com 1.10,2013-08-28 18:27:00,
2013-08-28 14:42:00,79.9,73.0,29.83,East,93,0.0,-999.0,78,-99.99,,,0.05,weatherlink.com 1.10,2013-08-28 18:42:00,
2013-08-28 14:57:00,79.8,73.0,29.83,NNW,330,0.0,-999.0,79,-99.99,,,0.05,weatherlink.com 1.10,2013-08-28 18:57:00,
2013-08-28 15:12:00,81.8,73.0,29.82,ESE,113,0.0,-999.0,74,-99.99,,,0.05,weatherlink.com 1.10,2013-08-28 19:12:00,
2013-08-28 15:27:00,81.7,74.0,29.83,ESE,110,0.0,-999.0,78,-99.99,,,0.05,weatherlink.com 1.10,2013-08-28 19:27:00,
2013-08-28 15:42:00,81.3,73.0,29.83,North,355,1.0,-999.0,77,-99.99,,,0.05,weatherlink.com 1.10,2013-08-28 19:42:00,
2013-08-28 15:57:00,80.2,73.0,29.83,ESE,117,0.0,-999.0,78,-99.99,,,0.05,weatherlink.com 1.10,2013-08-28 19:57:00,
2013-08-28 16:12:00,80.8,73.0,29.83,North,9,0.0,-999.0,78,-99.99,,,0.05,weatherlink.com 1.10,2013-08-28 20:12:00,
2013-08-28 16:27:00,82.3,74.0,29.83,SSE,153,0.0,-999.0,76,-99.99,,,0.05,weatherlink.com 1.10,2013-08-28 20:27:00,
2013-08-28 16:42:00,81.5,74.0,29.83,North,355,0.0,-999.0,78,-99.99,,,0.05,weatherlink.com 1.10,2013-08-28 20:42:00,
2013-08-28 16:57:00,80.8,74.0,29.84,NW,310,1.0,-999.0,79,-99.99,,,0.05,weatherlink.com 1.10,2013-08-28 20:57:00,
2013-08-28 17:13:00,80.5,73.0,29.83,NNW,336,4.0,-999.0,78,-99.99,,,0.05,weatherlink.com 1.10,2013-08-28 21:13:00,
2013-08-28 17:28:00,80.2,72.0,29.83,North,5,4.0,-999.0,76,-99.99,,,0.05,weatherlink.com 1.10,2013-08-28 21:28:00,
2013-08-28 17:43:00,80.2,72.0,29.84,ESE,108,0.0,-999.0,76,-99.99,,,0.05,weatherlink.com 1.10,2013-08-28 21:43:00,
2013-08-28 17:58:00,79.7,71.0,29.84,North,355,2.0,-999.0,75,-99.99,,,0.05,weatherlink.com 1.10,2013-08-28 21:58:00,
2013-08-28 18:13:00,79.2,71.0,29.85,NNE,17,0.0,-999.0,76,-99.99,,,0.05,weatherlink.com 1.10,2013-08-28 22:13:00,
2013-08-28 18:28:00,79.1,71.0,29.84,North,9,0.0,-999.0,76,-99.99,,,0.05,weatherlink.com 1.10,2013-08-28 22:28:00,
2013-08-28 18:43:00,78.7,70.0,29.86,North,350,0.0,-999.0,75,-99.99,,,0.05,weatherlink.com 1.10,2013-08-28 22:43:00,
2013-08-28 18:58:00,78.4,70.0,29.85,NE,56,0.0,-999.0,76,-99.99,,,0.05,weatherlink.com 1.10,2013-08-28 22:58:00,
2013-08-28 19:13:00,78.1,70.0,29.85,NNW,333,0.0,-999.0,76,-99.99,,,0.05,weatherlink.com 1.10,2013-08-28 23:13:00,
2013-08-28 19:28:00,77.3,70.0,29.86,North,355,1.0,-999.0,78,-99.99,,,0.05,weatherlink.com 1.10,2013-08-28 23:28:00,
2013-08-28 19:43:00,76.2,70.0,29.86,NNW,348,0.0,-999.0,80,-99.99,,,0.05,weatherlink.com 1.10,2013-08-28 23:43:00,
2013-08-28 19:58:00,75.4,70.0,29.88,NNW,348,0.0,-999.0,82,-99.99,,,0.05,weatherlink.com 1.10,2013-08-28 23:58:00,
2013-08-28 20:13:00,74.6,70.0,29.88,NNW,348,0.0,-999.0,84,-99.99,,,0.05,weatherlink.com 1.10,2013-08-29 00:13:00,
2013-08-28 20:28:00,74.0,70.0,29.89,NNW,348,0.0,-999.0,86,-99.99,,,0.05,weatherlink.com 1.10,2013-08-29 00:28:00,
2013-08-28 20:43:00,73.3,69.0,29.89,NNW,348,0.0,-999.0,87,-99.99,,,0.05,weatherlink.com 1.10,2013-08-29 00:43:00,
2013-08-28 20:58:00,72.8,69.0,29.89,NNW,348,0.0,-999.0,88,-99.99,,,0.05,weatherlink.com 1.10,2013-08-29 00:58:00,
2013-08-28 21:13:00,72.3,69.0,29.90,NNW,348,0.0,-999.0,89,-99.99,,,0.05,weatherlink.com 1.10,2013-08-29 01:13:00,
2013-08-28 21:28:00,71.7,68.0,29.90,NNW,348,0.0,-999.0,89,-99.99,,,0.05,weatherlink.com 1.10,2013-08-29 01:28:00,
2013-08-28 21:43:00,71.0,68.0,29.90,NNW,348,0.0,-999.0,89,-99.99,,,0.05,weatherlink.com 1.10,2013-08-29 01:43:00,
2013-08-28 21:58:00,70.1,67.0,29.91,NNW,348,0.0,-999.0,91,-99.99,,,0.05,weatherlink.com 1.10,2013-08-29 01:58:00,
2013-08-28 22:13:00,69.7,67.0,29.91,NNW,348,0.0,-999.0,92,-99.99,,,0.05,weatherlink.com 1.10,2013-08-29 02:13:00,
2013-08-28 22:28:00,69.2,67.0,29.92,NNW,348,0.0,-999.0,92,-99.99,,,0.05,weatherlink.com 1.10,2013-08-29 02:28:00,
2013-08-28 22:43:00,68.8,66.0,29.92,NNW,348,0.0,-999.0,92,-99.99,,,0.05,weatherlink.com 1.10,2013-08-29 02:43:00,
2013-08-28 22:58:00,68.5,67.0,29.92,NNW,348,0.0,-999.0,93,-99.99,,,0.05,weatherlink.com 1.10,2013-08-29 02:58:00,
2013-08-28 23:13:00,68.1,66.0,29.92,NNW,348,0.0,-999.0,93,-99.99,,,0.05,weatherlink.com 1.10,2013-08-29 03:13:00,
2013-08-28 23:28:00,67.7,66.0,29.93,NNW,348,0.0,-999.0,93,-99.99,,,0.05,weatherlink.com 1.10,2013-08-29 03:28:00,
2013-08-28 23:43:00,67.5,66.0,29.92,NNW,348,0.0,-999.0,94,-99.99,,,0.05,weatherlink.com 1.10,2013-08-29 03:43:00,
2013-08-28 23:58:00,67.2,66.0,29.93,NNW,348,0.0,-999.0,94,-99.99,,,0.05,weatherlink.com 1.10,2013-08-29 03:58:00,